Location: Home
(42.5358°N, 72.7383°W)
Time: 18:42:38
(UTC-05:00)

Transit 4A - Pass Details

Date: 09 December 2021
Orbit: 863 x 981 km, 66.8° (Epoch: 23 January)

Event Time Altitude Azimuth Distance (km) Brightness Sun altitude
Rises 02:21:24 0° 331° (NNW) 3,618 - -51.8°
Reaches altitude 10° 02:23:58 10° 336° (NNW) 2,686 - -51.4°
Maximum altitude 02:30:11 59° 55° (NE) 1,110 - -50.3°
Drops below altitude 10° 02:36:28 10° 135° (SE) 2,722 - -49.2°
Sets 02:39:05 0° 139° (SE) 3,670 - -48.7°
